GW7040 Weather Reports


Display with metric or nautical units.
time (UTC)temp
F
wind
direction
speed
MPH
gust
MPH
rain 1hr
in
rain 24hr
in
rain mn
in
humidity
%
barometer
mb
20260906224007 100 105 1.0 1.0 0.00 0.00 0.00 34 1011.3
20260906223502 101 91 4.0 7.0 0.00 0.00 0.00 34 1011.2
20260906223000 102 112 1.0 2.0 0.00 0.00 0.00 34 1011.3
20260906222455 102 80 2.0 3.0 0.00 0.00 0.00 34 1011.3
20260906221953 102 112 2.0 2.0 0.00 0.00 0.00 33 1011.3
20260906221452 102 120 1.0 1.0 0.00 0.00 0.00 34 1011.3
20260906220948 102 110 2.0 2.0 0.00 0.00 0.00 33 1011.6
20260906220443 102 110 1.0 1.0 0.00 0.00 0.00 33 1011.4
20260906215942 103 155 1.0 1.0 0.00 0.00 0.00 34 1011.4
20260906215437 102 91 0.0 0.0 0.00 0.00 0.00 34 1011.2
20260906214935 103 94 2.0 2.0 0.00 0.00 0.00 33 1011.3
20260906214434 103 93 1.0 1.0 0.00 0.00 0.00 34 1011.3
20260906213933 103 116 1.0 2.0 0.00 0.00 0.00 34 1011.6
20260906213428 102 71 2.0 2.0 0.00 0.00 0.00 34 1011.6
20260906212926 103 89 3.0 3.0 0.00 0.00 0.00 34 1011.8
20260906212421 104 91 2.0 2.0 0.00 0.00 0.00 34 1011.7
20260906211922 104 96 1.0 1.0 0.00 0.00 0.00 34 1012.0
20260906211422 103 95 1.0 1.0 0.00 0.00 0.00 34 1012.0
20260906210916 103 112 1.0 2.0 0.00 0.00 0.00 35 1012.0
20260906210413 103 129 3.0 4.0 0.00 0.00 0.00 33 1012.0
20260906205907 103 141 2.0 2.0 0.00 0.00 0.00 36 1012.1
20260906205403 103 109 1.0 1.0 0.00 0.00 0.00 34 1012.1
20260906204858 103 116 2.0 3.0 0.00 0.00 0.00 33 1012.1
20260906204357 103 94 4.0 7.0 0.00 0.00 0.00 34 1012.4
20260906203857 103 117 4.0 7.0 0.00 0.00 0.00 34 1012.4
20260906203353 102 106 3.0 3.0 0.00 0.00 0.00 34 1012.3
20260906202850 103 124 3.0 6.0 0.00 0.00 0.00 34 1012.5
20260906202349 102 111 1.0 1.0 0.00 0.00 0.00 35 1012.5
20260906201849 102 79 1.0 2.0 0.00 0.00 0.00 35 1012.6
20260906201344 102 97 3.0 4.0 0.00 0.00 0.00 35 1012.6
20260906200840 102 108 1.0 1.0 0.00 0.00 0.00 36 1012.5
20260906200336 102 93 2.0 2.0 0.00 0.00 0.00 35 1012.9
20260906195836 103 98 2.0 2.0 0.00 0.00 0.00 34 1012.8
20260906195332 103 132 1.0 1.0 0.00 0.00 0.00 35 1012.9
20260906194828 102 103 4.0 6.0 0.00 0.00 0.00 35 1012.9
20260906194323 102 83 3.0 3.0 0.00 0.00 0.00 36 1012.9
20260906193818 102 98 2.0 2.0 0.00 0.00 0.00 36 1012.9
20260906193314 102 87 2.0 3.0 0.00 0.00 0.00 37 1013.1
20260906192809 102 110 2.0 2.0 0.00 0.00 0.00 37 1013.0
20260906192309 101 79 3.0 4.0 0.00 0.00 0.00 37 1013.1
20260906191808 101 93 0.0 0.0 0.00 0.00 0.00 38 1013.2
20260906191304 102 88 1.0 1.0 0.00 0.00 0.00 38 1013.3
20260906190804 101 86 1.0 1.0 0.00 0.00 0.00 37 1013.4
20260906190303 101 108 1.0 1.0 0.00 0.00 0.00 40 1013.7
20260906185802 101 81 2.0 2.0 0.00 0.00 0.00 39 1013.4
20260906185305 100 98 3.0 3.0 0.00 0.00 0.00 39 1013.6
20260906184756 100 103 2.0 2.0 0.00 0.00 0.00 39 1013.7
20260906184252 100 121 2.0 3.0 0.00 0.00 0.00 39 1013.7
20260906183747 100 107 2.0 2.0 0.00 0.00 0.00 39 1013.9
20260906183244 99 47 2.0 3.0 0.00 0.00 0.00 39 1013.6
20260906182743 100 102 1.0 2.0 0.00 0.00 0.00 38 1014.0
20260906182239 99 96 3.0 3.0 0.00 0.00 0.00 40 1013.8
20260906181734 99 66 3.0 4.0 0.00 0.00 0.00 40 1014.1
20260906181231 101 121 3.0 6.0 0.00 0.00 0.00 38 1014.1
20260906180731 101 88 3.0 6.0 0.00 0.00 0.00 37 1014.0
20260906180226 101 112 1.0 2.0 0.00 0.00 0.00 39 1014.3
20260906175724 101 93 1.0 1.0 0.00 0.00 0.00 38 1014.0
20260906175219 101 90 1.0 1.0 0.00 0.00 0.00 40 1014.3
20260906174718 101 98 0.0 1.0 0.00 0.00 0.00 40 1014.2
20260906174212 101 78 2.0 2.0 0.00 0.00 0.00 39 1014.3
20260906173708 100 99 0.0 1.0 0.00 0.00 0.00 41 1014.5
20260906173203 100 99 1.0 1.0 0.00 0.00 0.00 39 1014.5
20260906172702 100 102 2.0 3.0 0.00 0.00 0.00 42 1014.6
20260906172158 99 51 2.0 2.0 0.00 0.00 0.00 40 1014.7
20260906171658 99 107 1.0 2.0 0.00 0.00 0.00 41 1014.9
20260906171153 99 98 1.0 1.0 0.00 0.00 0.00 41 1014.6
20260906170649 98 80 2.0 3.0 0.00 0.00 0.00 41 1015.0
20260906170149 99 125 4.0 7.0 0.00 0.00 0.00 40 1014.9
20260906165645 100 95 1.0 1.0 0.00 0.00 0.00 42 1014.8
20260906165140 100 102 0.0 0.0 0.00 0.00 0.00 42 1014.9
20260906164639 99 94 1.0 1.0 0.00 0.00 0.00 43 1015.0
20260906164135 99 111 1.0 1.0 0.00 0.00 0.00 41 1015.0
20260906163631 99 97 1.0 1.0 0.00 0.00 0.00 42 1015.1
20260906163127 99 114 1.0 3.0 0.00 0.00 0.00 42 1014.8
20260906162624 99 86 2.0 2.0 0.00 0.00 0.00 42 1014.9
20260906162124 99 84 1.0 1.0 0.00 0.00 0.00 43 1014.7
20260906161623 98 95 2.0 2.0 0.00 0.00 0.00 43 1014.7
20260906161122 97 103 2.0 2.0 0.00 0.00 0.00 44 1014.7
20260906160621 97 93 3.0 4.0 0.00 0.00 0.00 44 1014.8
20260906160120 97 69 1.0 2.0 0.00 0.00 0.00 46 1015.0
20260906155618 98 107 1.0 2.0 0.00 0.00 0.00 44 1014.9
20260906155114 98 104 0.0 0.0 0.00 0.00 0.00 45 1014.9
20260906154609 97 105 0.0 0.0 0.00 0.00 0.00 49 1014.8
20260906154108 96 105 0.0 0.0 0.00 0.00 0.00 48 1014.8
20260906153608 96 101 1.0 2.0 0.00 0.00 0.00 46 1014.9
20260906153103 96 101 1.0 1.0 0.00 0.00 0.00 50 1014.8
20260906152603 97 86 2.0 2.0 0.00 0.00 0.00 51 1014.8
20260906152057 97 91 0.0 0.0 0.00 0.00 0.00 49 1014.6
20260906151552 96 92 1.0 2.0 0.00 0.00 0.00 50 1014.5
20260906151048 96 98 2.0 3.0 0.00 0.00 0.00 51 1014.6
20260906150543 97 95 0.0 0.0 0.00 0.00 0.00 50 1014.5
20260906150038 97 97 0.0 0.0 0.00 0.00 0.00 51 1014.6
20260906145536 96 83 0.0 0.0 0.00 0.00 0.00 50 1014.3
20260906145032 95 96 0.0 1.0 0.00 0.00 0.00 53 1014.7
20260906144526 94 90 0.0 0.0 0.00 0.00 0.00 55 1014.5
20260906144021 93 105 0.0 0.0 0.00 0.00 0.00 56 1014.7
20260906143516 93 99 0.0 0.0 0.00 0.00 0.00 59 1014.7
20260906143014 93 104 0.0 0.0 0.00 0.00 0.00 57 1014.7
20260906142513 92 103 0.0 0.0 0.00 0.00 0.00 57 1014.7
20260906142009 92 93 0.0 0.0 0.00 0.00 0.00 58 1014.7
20260906141508 91 92 0.0 0.0 0.00 0.00 0.00 60 1014.7
20260906141003 92 94 0.0 0.0 0.00 0.00 0.00 60 1014.7
20260906140503 91 94 0.0 0.0 0.00 0.00 0.00 61 1014.7
20260906140001 89 98 0.0 0.0 0.00 0.00 0.00 62 1014.7
20260906135459 89 97 1.0 1.0 0.00 0.00 0.00 62 1014.4
20260906134955 89 100 0.0 0.0 0.00 0.00 0.00 64 1014.5
20260906134451 90 99 0.0 0.0 0.00 0.00 0.00 63 1014.5
20260906133951 89 90 0.0 0.0 0.00 0.00 0.00 64 1014.4
20260906133446 88 101 0.0 0.0 0.00 0.00 0.00 66 1014.6
20260906132942 87 85 0.0 0.0 0.00 0.00 0.00 68 1014.6
20260906132437 86 96 1.0 1.0 0.00 0.00 0.00 71 1014.6
20260906131932 86 96 0.0 0.0 0.00 0.00 0.00 71 1014.7
20260906131428 85 96 0.0 0.0 0.00 0.00 0.00 71 1014.6
20260906130923 85 95 0.0 0.0 0.00 0.00 0.00 73 1014.8
20260906130422 84 96 0.0 0.0 0.00 0.00 0.00 74 1014.6
20260906125923 82 95 0.0 0.0 0.00 0.00 0.00 77 1014.4
20260906125420 81 96 0.0 0.0 0.00 0.00 0.00 80 1014.5
20260906124914 80 96 0.0 0.0 0.00 0.00 0.00 82 1014.3
20260906124410 78 96 0.0 0.0 0.00 0.00 0.00 85 1014.5
20260906123910 77 96 0.0 0.0 0.00 0.00 0.00 88 1014.4
20260906123410 77 96 0.0 0.0 0.00 0.00 0.00 89 1014.4
20260906122910 76 96 0.0 0.0 0.00 0.00 0.00 89 1014.1
20260906122404 76 96 0.0 0.0 0.00 0.00 0.00 90 1014.3
20260906121901 75 96 0.0 0.0 0.00 0.00 0.00 91 1014.3
20260906121357 75 96 0.0 0.0 0.00 0.00 0.00 89 1014.1
20260906120853 75 96 0.0 0.0 0.00 0.00 0.00 89 1014.1
20260906120349 76 96 0.0 0.0 0.00 0.00 0.00 88 1013.9
20260906115845 76 96 0.0 0.0 0.00 0.00 0.00 88 1014.0
20260906115340 76 96 0.0 0.0 0.00 0.00 0.00 87 1013.9
20260906114839 76 96 0.0 0.0 0.00 0.00 0.00 87 1013.9
20260906114334 77 96 0.0 0.0 0.00 0.00 0.00 86 1013.8
20260906113830 77 96 0.0 0.0 0.00 0.00 0.00 86 1013.7
20260906113329 77 96 0.0 0.0 0.00 0.00 0.00 87 1013.8
20260906112824 77 96 0.0 0.0 0.00 0.00 0.00 87 1013.7
20260906112320 77 96 0.0 0.0 0.00 0.00 0.00 86 1013.7
20260906111820 77 96 0.0 0.0 0.00 0.00 0.00 86 1013.7
20260906111320 77 96 0.0 0.0 0.00 0.00 0.00 86 1013.6
20260906110815 77 96 0.0 0.0 0.00 0.00 0.00 86 1013.7
20260906110311 77 96 0.0 0.0 0.00 0.00 0.00 86 1013.6
20260906105809 77 96 0.0 0.0 0.00 0.00 0.00 87 1013.6
20260906105306 77 96 0.0 0.0 0.00 0.00 0.00 88 1013.4
20260906104801 77 96 0.0 0.0 0.00 0.00 0.00 88 1013.4
20260906104259 77 96 0.0 0.0 0.00 0.00 0.00 88 1013.3
20260906103758 77 96 0.0 0.0 0.00 0.00 0.00 88 1013.4
20260906103257 76 96 0.0 0.0 0.00 0.00 0.00 88 1013.4
20260906102753 76 96 0.0 0.0 0.00 0.00 0.00 87 1013.2
20260906102252 77 96 0.0 0.0 0.00 0.00 0.00 86 1013.4
20260906101747 77 96 0.0 0.0 0.00 0.00 0.00 86 1013.2
20260906101242 77 96 0.0 0.0 0.00 0.00 0.00 85 1013.4
20260906100738 77 96 0.0 0.0 0.00 0.00 0.00 85 1013.2
20260906100237 77 96 0.0 0.0 0.00 0.00 0.00 85 1013.2
20260906095732 77 96 0.0 0.0 0.00 0.00 0.00 84 1013.2
20260906095228 77 96 0.0 0.0 0.00 0.00 0.00 84 1013.2
20260906094727 78 96 0.0 0.0 0.00 0.00 0.00 84 1013.4
20260906094222 78 96 0.0 0.0 0.00 0.00 0.00 83 1013.1
20260906093719 78 96 0.0 0.0 0.00 0.00 0.00 83 1013.0
20260906093214 78 96 0.0 0.0 0.00 0.00 0.00 82 1013.2
20260906092709 78 96 0.0 0.0 0.00 0.00 0.00 82 1012.8
20260906092208 78 96 0.0 0.0 0.00 0.00 0.00 82 1013.0
20260906091705 79 96 0.0 0.0 0.00 0.00 0.00 81 1013.0
20260906091201 79 96 0.0 0.0 0.00 0.00 0.00 80 1012.9
20260906090656 79 96 0.0 0.0 0.00 0.00 0.00 80 1013.0
20260906090156 79 96 0.0 0.0 0.00 0.00 0.00 80 1012.6
20260906085655 80 96 0.0 0.0 0.00 0.00 0.00 79 1012.7
20260906085154 80 96 0.0 0.0 0.00 0.00 0.00 79 1012.7
20260906084649 80 96 0.0 0.0 0.00 0.00 0.00 78 1012.8
20260906084148 80 97 0.0 0.0 0.00 0.00 0.00 78 1012.7
20260906083643 80 97 0.0 0.0 0.00 0.00 0.00 78 1012.6
20260906083139 80 97 0.0 0.0 0.00 0.00 0.00 77 1012.6
20260906082634 80 97 0.0 0.0 0.00 0.00 0.00 77 1012.8
20260906082130 80 85 1.0 1.0 0.00 0.00 0.00 77 1012.3
20260906081626 80 98 0.0 0.0 0.00 0.00 0.00 77 1012.5
20260906081120 80 99 0.0 0.0 0.00 0.00 0.00 76 1012.6
20260906080617 80 99 0.0 1.0 0.00 0.00 0.00 76 1012.6
20260906080113 80 96 0.0 0.0 0.00 0.00 0.00 76 1012.6
20260906075612 80 83 0.0 0.0 0.00 0.00 0.00 76 1012.6
20260906075107 80 90 0.0 0.0 0.00 0.00 0.00 76 1013.0
20260906074603 80 98 0.0 0.0 0.00 0.00 0.00 77 1012.7
20260906074101 80 98 0.0 0.0 0.00 0.00 0.00 76 1012.7
20260906073556 80 98 0.0 0.0 0.00 0.00 0.00 76 1012.8
20260906073053 80 88 0.0 0.0 0.00 0.00 0.00 74 1012.6
20260906072552 80 88 0.0 0.0 0.00 0.00 0.00 73 1012.9
20260906072049 81 88 0.0 0.0 0.00 0.00 0.00 73 1012.7
20260906071545 81 88 0.0 0.0 0.00 0.00 0.00 72 1012.9
20260906071039 81 88 0.0 0.0 0.00 0.00 0.00 73 1013.1
20260906070536 81 88 0.0 0.0 0.00 0.00 0.00 72 1013.3
20260906070031 82 89 0.0 0.0 0.00 0.00 0.00 70 1013.0
20260906065531 82 89 0.0 0.0 0.00 0.00 0.00 70 1013.0
20260906065027 82 91 1.0 1.0 0.00 0.00 0.00 69 1013.1
20260906064523 82 88 0.0 0.0 0.00 0.00 0.00 69 1013.0
20260906064023 82 92 1.0 1.0 0.00 0.00 0.00 69 1012.8
20260906063518 82 91 0.0 0.0 0.00 0.00 0.00 69 1013.1
20260906063014 82 90 0.0 0.0 0.00 0.00 0.00 68 1013.0
20260906062509 82 97 0.0 0.0 0.00 0.00 0.00 68 1013.0
20260906062003 82 92 0.0 0.0 0.00 0.00 0.00 68 1012.9
20260906061500 82 119 1.0 1.0 0.00 0.00 0.00 68 1012.8
20260906060959 83 95 0.0 0.0 0.00 0.00 0.00 68 1012.8
20260906060456 83 84 0.0 0.0 0.00 0.00 0.00 68 1013.0
20260906055952 83 98 0.0 1.0 0.00 0.00 0.00 67 1012.9
20260906055448 82 91 1.0 1.0 0.00 0.00 0.00 68 1012.9
20260906054944 82 96 0.0 0.0 0.00 0.00 0.00 68 1013.1
20260906054443 82 97 0.0 0.0 0.00 0.00 0.00 68 1013.1
20260906053939 83 88 0.0 0.0 0.00 0.00 0.00 68 1013.1
20260906053435 83 88 0.0 0.0 0.00 0.00 0.00 67 1013.1
20260906052931 83 88 0.0 0.0 0.00 0.00 0.00 67 1013.0
20260906052426 84 88 0.0 0.0 0.00 0.00 0.00 66 1012.9
20260906051923 84 88 0.0 0.0 0.00 0.00 0.00 66 1013.0
20260906051423 84 87 0.0 0.0 0.00 0.00 0.00 66 1012.9
20260906050919 84 86 0.0 0.0 0.00 0.00 0.00 66 1012.9
20260906050419 84 90 0.0 0.0 0.00 0.00 0.00 65 1013.1
20260906045918 84 94 0.0 0.0 0.00 0.00 0.00 65 1013.0
20260906045417 84 97 0.0 0.0 0.00 0.00 0.00 65 1013.1
20260906044914 84 100 0.0 0.0 0.00 0.00 0.00 65 1013.0
20260906044413 84 100 1.0 1.0 0.00 0.00 0.00 65 1013.2
20260906043909 85 89 0.0 0.0 0.00 0.00 0.00 65 1013.0
20260906043405 85 97 0.0 0.0 0.00 0.00 0.00 64 1013.0
20260906042900 85 96 0.0 0.0 0.00 0.00 0.00 64 1012.8
20260906042359 85 91 0.0 0.0 0.00 0.00 0.00 63 1013.0
20260906041855 85 101 0.0 0.0 0.00 0.00 0.00 63 1012.9
20260906041350 85 95 0.0 0.0 0.00 0.00 0.00 63 1013.1
20260906040845 85 99 0.0 0.0 0.00 0.00 0.00 63 1012.9
20260906040340 85 116 0.0 0.0 0.00 0.00 0.00 63 1013.0
20260906035835 86 112 0.0 0.0 0.00 0.00 0.00 63 1013.0
20260906035331 86 119 1.0 2.0 0.00 0.00 0.00 62 1013.1
20260906034826 86 90 1.0 1.0 0.00 0.00 0.00 62 1013.1
20260906034321 86 86 1.0 1.0 0.00 0.00 0.00 62 1013.0
20260906033817 86 94 0.0 1.0 0.00 0.00 0.00 62 1012.8
20260906033315 86 89 1.0 2.0 0.00 0.00 0.00 61 1013.0
20260906032812 86 63 1.0 1.0 0.00 0.00 0.00 61 1012.7
20260906032308 86 66 2.0 2.0 0.00 0.00 0.00 61 1013.0
20260906031803 86 104 0.0 0.0 0.00 0.00 0.00 61 1013.1
20260906031259 86 84 1.0 1.0 0.00 0.00 0.00 60 1013.0
20260906030758 87 116 2.0 2.0 0.00 0.00 0.00 60 1013.2
20260906030253 87 90 1.0 1.0 0.00 0.00 0.00 60 1013.1
20260906025753 87 105 0.0 0.0 0.00 0.00 0.00 60 1013.0
20260906025247 87 78 1.0 1.0 0.00 0.00 0.00 59 1013.0
20260906024746 87 85 0.0 0.0 0.00 0.00 0.00 59 1012.9
20260906024245 87 88 1.0 1.0 0.00 0.00 0.00 58 1012.9
20260906023741 87 97 1.0 1.0 0.00 0.00 0.00 58 1012.9
20260906023236 87 82 1.0 1.0 0.00 0.00 0.00 58 1012.8
20260906022732 87 97 1.0 2.0 0.00 0.00 0.00 57 1012.3
20260906022227 87 100 2.0 2.0 0.00 0.00 0.00 57 1012.5
20260906021723 88 96 0.0 0.0 0.00 0.00 0.00 56 1012.3
20260906021222 88 112 1.0 2.0 0.00 0.00 0.00 56 1012.4
20260906020717 88 91 1.0 1.0 0.00 0.00 0.00 55 1012.3
20260906020211 89 96 1.0 0.0 0.00 0.00 0.00 54 1012.3
20260906015706 89 85 1.0 1.0 0.00 0.00 0.00 54 1012.4
20260906015205 90 89 1.0 1.0 0.00 0.00 0.00 53 1012.3
20260906014704 90 87 1.0 2.0 0.00 0.00 0.00 52 1012.3
20260906014200 90 88 0.0 1.0 0.00 0.00 0.00 51 1012.1
20260906013656 91 114 1.0 1.0 0.00 0.00 0.00 51 1012.1
20260906013151 91 101 1.0 1.0 0.00 0.00 0.00 50 1012.0
20260906012652 92 111 2.0 2.0 0.00 0.00 0.00 49 1011.9
20260906012152 92 98 1.0 3.0 0.00 0.00 0.00 49 1011.7
20260906011648 93 99 3.0 3.0 0.00 0.00 0.00 48 1011.4
20260906011148 93 94 2.0 3.0 0.00 0.00 0.00 47 1011.4
20260906010643 93 41 1.0 2.0 0.00 0.00 0.00 44 1011.3
20260906010139 94 95 0.0 0.0 0.00 0.00 0.00 42 1011.3
20260906005639 94 110 1.0 2.0 0.00 0.00 0.00 42 1011.2
20260906005138 94 101 1.0 1.0 0.00 0.00 0.00 42 1011.2
20260906004637 94 99 1.0 1.0 0.00 0.00 0.00 42 1011.1
20260906004132 94 99 0.0 0.0 0.00 0.00 0.00 42 1011.2
20260906003627 95 98 2.0 3.0 0.00 0.00 0.00 41 1011.0
20260906003123 95 103 1.0 1.0 0.00 0.00 0.00 41 1011.2
20260906002618 95 100 2.0 3.0 0.00 0.00 0.00 40 1011.1
20260906002113 95 108 1.0 2.0 0.00 0.00 0.00 40 1011.3
20260906001609 95 90 1.0 1.0 0.00 0.00 0.00 40 1011.3
20260906001108 96 105 1.0 1.0 0.00 0.00 0.00 40 1011.2
20260906000605 96 84 0.0 1.0 0.00 0.00 0.00 39 1011.0
20260906000059 96 96 2.0 2.0 0.00 0.00 0.00 39 1010.8
20260905235558 96 88 1.0 2.0 0.00 0.00 0.00 38 1011.1
20260905235054 96 107 2.0 3.0 0.00 0.00 0.00 38 1011.0
20260905234549 97 102 1.0 1.0 0.00 0.00 0.00 38 1010.9
20260905234044 97 105 1.0 1.0 0.00 0.00 0.00 38 1010.8
20260905233544 97 98 0.0 0.0 0.00 0.00 0.00 38 1010.9
20260905233044 98 74 1.0 3.0 0.00 0.00 0.00 37 1010.9
20260905232539 98 98 1.0 2.0 0.00 0.00 0.00 37 1011.1
20260905232035 99 98 0.0 0.0 0.00 0.00 0.00 36 1010.9
20260905231530 99 104 0.0 0.0 0.00 0.00 0.00 36 1010.9
20260905231026 100 101 2.0 2.0 0.00 0.00 0.00 35 1010.9
20260905230525 100 124 1.0 1.0 0.00 0.00 0.00 35 1011.0
20260905230024 101 103 1.0 1.0 0.00 0.00 0.00 34 1011.2
20260905225519 102 100 2.0 2.0 0.00 0.00 0.00 33 1010.9
20260905225014 103 89 1.0 1.0 0.00 0.00 0.00 32 1011.0
20260905224509 105 102 1.0 1.0 0.00 0.00 0.00 31 1010.9